Content
SEND FEEDBACK

Daily
Averages
Monthly
Summary
United States of America

WRIGHTSBORO, NORTH CAROLINA


Home > North America > United States > North Carolina
Elevation: 30 feet     Latitude: 34 18N     Longitude: 077 54W

WEATHER
 
SELECT A DAY
Number of Records: 208,780;   Date Range: 1/1/95 - 7/26/14
 
SHARE

PRINT THIS DATA

[ ← Previous Day ]
WEATHER ALMANAC - MAY 22, 2013
[ Next Day → ]
[ °C ]   °F
Weather ElementAverageHighLow
Temperature74.7 °F82 °F (1:53 pm)68 °F (4:53 am)
Dewpoint67.6 °F71.1 °F (8:53 am)64.9 °F (5:53 am)
Humidity79.5 %94 % (2:41 am)58 % (3:53 pm)
Barometer30.02 in30.06 in (8:53 am)29.98 in (6:53 pm)
Wind Speed9.9 mph17.3 mph (2:41 am)
Wind Gust25.3 mph (2:41 am)
Weather ElementAverage
Visibility8.7 mi
Wind DirectionSSE (171.7 °)

Weather ElementTotal
Precipitation0.74 in
Cooling Degree Days10 (Base 65)
Growing Degree Days25 (Base 50)
Averaged from 30 records on May 22, 2013
WEATHER CONDITIONS BREAKOUT
WIND DIRECTION BREAKOUT
WEATHER BY HOUR - MAY 22, 2013
[ °C ]   °F
Local TimeTemperatureDewpointHumidityBarometerVisibilityWind DirectionWind SpeedGust SpeedPrecipitationEventsConditions
1:53 AM71.1 °F68.0 °F90 %30.03 in10.0 miSouth (190°)4.6 mph0.00 inScattered Clouds
2:41 AM69.8 °F68.0 °F94 %30.04 in1.8 miSW (230°)17.3 mph25.3 mph0.06 inRainHeavy Rain
2:43 AM69.8 °F66.2 °F88 %30.03 in1.2 miSW (230°)15.0 mph25.3 mph0.11 inRainHeavy Rain
2:48 AM69.8 °F66.2 °F88 %30.03 in1.8 miSSW (210°)11.5 mph23.0 mph0.19 inRainHeavy Rain
2:53 AM70.0 °F66.9 °F90 %30.03 in4.0 miSSW (200°)8.1 mph19.6 mph0.21 inRainLight Rain
3:53 AM70.0 °F66.9 °F90 %30.04 in4.0 miSouth (180°)11.5 mph0.06 inRainLight Rain
4:53 AM68.0 °F66.0 °F93 %30.03 in8.0 miSouth (180°)8.1 mph0.09 inRainLight Rain
5:53 AM68.0 °F64.9 °F90 %30.02 in10.0 miSouth (170°)5.8 mph0.02 inScattered Clouds
6:53 AM69.1 °F66.9 °F93 %30.03 in9.0 miCalmClear
7:53 AM72.0 °F69.1 °F91 %30.04 in10.0 miSSE (150°)4.6 mphClear
8:53 AM75.9 °F71.1 °F85 %30.06 in10.0 miSouth (180°)6.9 mphClear
9:16 AM77.0 °F69.8 °F78 %30.06 in10.0 miSouth (180°)6.9 mphMostly Cloudy
9:43 AM75.2 °F69.8 °F83 %30.05 in10.0 miSouth (180°)5.8 mphPartly Cloudy
9:53 AM75.9 °F69.1 °F79 %30.05 in10.0 miSSE (150°)8.1 mphPartly Cloudy
10:53 AM80.1 °F68.0 °F67 %30.06 in10.0 miSSW (200°)8.1 mphPartly Cloudy
11:53 AM81.0 °F68.0 °F65 %30.06 in10.0 miSSE (160°)12.7 mphScattered Clouds
12:53 PM81.0 °F66.9 °F62 %30.05 in10.0 miSouth (170°)13.8 mphMostly Cloudy
1:53 PM82.0 °F68.0 °F62 %30.03 in10.0 miSSE (150°)12.7 mph21.9 mphScattered Clouds
2:53 PM82.0 °F66.9 °F60 %30.02 in10.0 miSouth (180°)16.1 mph21.9 mphPartly Cloudy
3:53 PM82.0 °F66.0 °F58 %30.01 in10.0 miSouth (170°)17.3 mphPartly Cloudy
4:53 PM79.0 °F69.1 °F72 %30.00 in10.0 miSouth (180°)12.7 mph17.3 mph0.00 inRainLight Rain
5:53 PM80.1 °F66.0 °F62 %29.99 in10.0 miSouth (180°)13.8 mph21.9 mph0.00 inScattered Clouds
6:53 PM77.0 °F66.9 °F71 %29.98 in10.0 miSSE (160°)12.7 mphPartly Cloudy
7:20 PM75.2 °F66.2 °F73 %29.98 in10.0 miSSE (160°)13.8 mph18.4 mphMostly Cloudy
7:42 PM75.2 °F66.2 °F73 %29.98 in10.0 miSouth (170°)11.5 mph17.3 mphScattered Clouds
7:53 PM73.9 °F68.0 °F82 %29.98 in10.0 miSouth (170°)11.5 mphPartly Cloudy
8:53 PM73.0 °F69.1 °F87 %29.99 in10.0 miSouth (170°)8.1 mphClear
9:53 PM73.0 °F68.0 °F84 %30.01 in10.0 miSouth (170°)6.9 mphClear
10:53 PM73.0 °F68.0 °F84 %30.01 in10.0 miSouth (170°)6.9 mphClear
11:53 PM72.0 °F69.1 °F91 %30.00 in10.0 miSSE (160°)4.6 mphPartly Cloudy
Hourly data recorded from KILM, located miles away from Wrightsboro, North Carolina







STORIES FROM OUR PARTNERS